Location: Sternwarte Stuttgart
(48.7670°N, 9.1830°E)
Time: 05:40:31
(UTC+01:00)

SJ-7 - Pass Details

Date: 24 January 2019
Orbit: 555 x 604 km, 97.7° (Epoch: 20 February)

Event Time Altitude Azimuth Distance (km) Brightness Sun altitude
Rises 06:26:22 0° 14° (NNE) 2,770 7.9 -15.8°
Reaches altitude 10° 06:28:32 10° 16° (NNE) 1,863 7.1 -15.5°
Maximum altitude 06:32:34 79° 104° (ESE) 575 4.5 -14.8°
Drops below altitude 10° 06:36:32 10° 190° (S) 1,835 7.0 -14.2°
Sets 06:38:39 0° 192° (SSW) 2,724 7.9 -13.8°
